Creek Data

    Home     View Charts     View Raw Data     Messages

ID Distance Battery Voltage Battery Current Internal Temp Internal Humidity External Temp Solar Input rssi snr Time Stamp Record
32597 12.6 3.76 -5 44 38 45 0 -84 9 02/17/2025 01:00 AM 14269
32596 12.6 3.63 -5 44 38 46 0 -84 8 02/17/2025 12:45 AM 14268
32595 12.6 3.63 -5 44 38 46 0.1 -85 8 02/17/2025 12:30 AM 14267
32594 12.6 3.64 -5 45 38 45 0 -85 8 02/17/2025 12:15 AM 14266
32593 12.6 3.76 -5 46 38 47 0 -86 8 02/17/2025 12:00 AM 14265
32592 12.6 3.64 -5 46 38 47 0.1 -87 9 02/16/2025 11:45 PM 14264
32591 12.6 3.77 -5 47 38 48 0.1 -84 9 02/16/2025 11:30 PM 14263
32590 12.6 3.64 -5 47 37 49 0 -86 8 02/16/2025 11:15 PM 14262
32589 12.6 3.76 -5 47 37 49 0 -84 8 02/16/2025 11:00 PM 14261
32588 12.6 3.63 -5 47 38 49 0 -86 7 02/16/2025 10:45 PM 14260
32587 12.6 3.61 -5 46 38 48 0.1 -82 8 02/16/2025 10:30 PM 14259
32586 12.6 3.61 -5 47 38 49 0 -83 8 02/16/2025 10:15 PM 14258
32585 12.6 3.62 -5 48 38 49 0.1 -83 9 02/16/2025 10:00 PM 14257
32584 12.6 3.61 -5 48 38 49 0 -82 8 02/16/2025 09:45 PM 14256
32583 12.6 3.77 -5 49 38 50 0.1 -81 8 02/16/2025 09:30 PM 14255
32582 12.6 3.62 -5 49 38 50 0.1 -80 8 02/16/2025 09:15 PM 14254
32581 12.6 3.62 -5 49 38 51 0 -80 7 02/16/2025 09:00 PM 14253
32580 12.6 3.77 -5 49 38 51 0 -81 8 02/16/2025 08:45 PM 14252
32579 12.6 3.68 -5 49 38 50 0 -80 8 02/16/2025 08:30 PM 14251
32578 12.6 3.61 -5 49 38 50 0 -80 8 02/16/2025 08:15 PM 14250
32577 12.6 3.70 -5 50 38 51 0.1 -80 7 02/16/2025 08:00 PM 14249
32576 12.7 3.76 -5 50 39 51 0 -80 8 02/16/2025 07:45 PM 14248
32575 12.6 3.60 -5 51 39 52 0.1 -80 8 02/16/2025 07:30 PM 14247
32574 12.6 3.63 -5 51 39 52 0 -80 8 02/16/2025 07:15 PM 14246
32573 12.6 3.77 -5 52 39 52 0.1 -80 8 02/16/2025 07:00 PM 14245